Hourly Data Report for September 17, 2017

All times are specified in Local Standard Time (LST). Add 1 hour to adjust for Daylight Saving Time where and when it is observed.

COMOX A
BRITISH COLUMBIA

49°43'00.000" N
124°54'00.000" W
25.60 m
1021830
71893
YQQ

Download Data

Hourly Data (September 2017)
Hourly Data Report for September 17, 2017
Temp Definition
°C
Dew Point Temp Definition
°C
Rel Hum Definition
%
Wind Dir Definition
10's deg

Wind Spd Definition
km/h
Visibility Definition
km
Stn Press Definition
kPa
Hmdx Definition


Wind Chill Definition


Weather Definition


TIME
00:00 14.1 10.3 78 20 9 32.2 100.68     Cloudy
01:00 14.7 10.3 75 16 13 32.2 100.62     Mostly Cloudy
02:00 13.9 9.0 72 18 6 32.2 100.58     Cloudy
03:00 14.0 9.0 72 18 11 32.2 100.52     Cloudy
04:00 15.8 9.6 67 15 22 32.2 100.42     Cloudy
05:00 15.8 9.0 64 15 22 32.2 100.35     Cloudy
06:00 15.3 8.9 66 16 19 32.2 100.34     Cloudy
07:00 15.9 6.6 54 21 7 32.2 100.32     Cloudy
08:00 15.4 6.4 55 18 6 32.2 100.28     Rain Showers
09:00 13.3 10.1 81 16 20 19.3 100.26     Moderate Rain Showers
10:00 13.9 11.3 84 13 28 19.3 100.21     Rain Showers
11:00 13.8 11.3 85 13 30 19.3 100.14     Rain
12:00 13.6 11.6 88 13 35 16.1 100.09     Rain
13:00 13.2 11.8 91 13 43 12.9 100.04     Rain
14:00 13.6 11.5 87 14 43 19.3 100.00     Rain
15:00 13.4 11.2 87 14 41 24.1 99.98     Rain
16:00 14.1 11.4 84 16 26 24.1 99.98     Mostly Cloudy
17:00 11.8 9.7 87 33 28 32.2 100.14     Mostly Cloudy
18:00 11.1 8.6 85 1 17 32.2 100.20     Mainly Clear
19:00 10.4 8.6 89 32 6 32.2 100.29     Mostly Cloudy
20:00 9.7 8.6 93 22 4 32.2 100.35     Mainly Clear
21:00 9.8 8.9 94 21 4 32.2 100.37     Mostly Cloudy
22:00 9.3 8.5 95   0 32.2 100.42     Mostly Cloudy
23:00 9.2 8.4 95 23 4 32.2 100.43     Mostly Cloudy

Notes on Data Quality.

Legend

  • E = Estimated
  • M = Missing
  • NA = Not Available
  • ‡ = Partner data that is not subject to review by the National Climate Archives
Date modified: